Flag for Germany Weather past 2 weeks in Ellwangen (Jagst), Baden-Württemberg, Germany

Now
76 °F

Passing clouds.


Feels Like: 78 °F
Forecast: 60 / 85 °F
Wind: 2 mph from West

Location: Stoetten

Current Time: Jun 30, 2015 at 3:15:07 PM

Latest Report: Jun 30, 2015 at 2:00 PM


Visibility: 44 mi

Pressure: 30.09 "Hg

Humidity: 42%

Dew point: 51 °F

Location of Ellwangen (Jagst)Location

Historic Weather in Ellwangen (Jagst) — Graph

°F

Ellwangen (Jagst) temperature yesterday

Maximum temperature yesterday: 73 °F (at 4:00 PM)
Minimum temperature yesterday: 59 °F (at 7:00 AM)
Average temperature yesterday: 65 °F

Past Weeks' High & Low Weather Summary

 TemperatureHumidityPressure
High76 °F (Jun 30, 2:00 PM)100% (Jun 18, 4:00 PM)30.23 "Hg (Jun 18, 4:00 PM)
Low44 °F (Jun 21, 2:00 AM)42% (Jun 30, 2:00 PM)29.74 "Hg (Jun 22, 10:00 PM)
Average56 °F77%30.09 "Hg
* Reported Jun 15 2:00 PM — Jun 30 2:00 PM, Ellwangen (Jagst), Weather by CustomWeather, © 2015

Note: Actual official high and low records may vary slightly from our data, if they occured in-between our weather recording intervals... More about our weather records

Advertising

Ellwangen (Jagst) weather history for previous 24 hours

 ConditionsComfort  
Time TempWeatherWind HumidityBarometerVisibility
2:00 PM
Tue, Jun 30
76 °FPassing clouds.2 mph42%30.09 "Hg43 mi
1:00 PM75 °FPassing clouds.3 mph50%30.10 "Hg43 mi
12:00 PM73 °FPassing clouds.3 mph52%30.11 "Hg40 mi
11:00 AM72 °FPassing clouds.3 mph59%30.11 "Hg37 mi
10:00 AM70 °FPassing clouds.2 mph65%30.12 "Hg37 mi
9:00 AM69 °FPassing clouds.2 mph64%30.12 "Hg37 mi
8:00 AM67 °FPassing clouds.2 mph59%30.12 "Hg37 mi
7:00 AM64 °FScattered clouds.2 mph69%30.14 "Hg37 mi
5:00 AM65 °FClear.2 mph64%30.12 "Hg22 mi
4:00 AM65 °FClear.2 mph64%30.13 "Hg25 mi
3:00 AM66 °FClear.3 mph61%30.14 "Hg22 mi
2:00 AM67 °FClear.2 mph60%30.14 "Hg25 mi
1:00 AM65 °FClear.3 mph63%30.16 "Hg25 mi
12:00 AM67 °FClear.2 mph61%30.15 "Hg19 mi
11:00 PM
Mon, Jun 29
66 °FClear.1 mph62%30.16 "Hg22 mi
10:00 PM68 °FClear.2 mph57%30.15 "Hg22 mi
9:00 PM69 °FPartly sunny.2 mph55%30.13 "Hg47 mi
8:00 PM71 °FPartly sunny.1 mph54%30.12 "Hg47 mi
7:00 PM72 °FPartly sunny.3 mph51%30.11 "Hg47 mi
6:00 PM72 °FPartly sunny.5 mph51%30.11 "Hg47 mi
5:00 PM71 °FScattered clouds.N/A53%30.11 "Hg47 mi
4:00 PM73 °FPassing clouds.5 mph53%30.11 "Hg47 mi
3:00 PM71 °FScattered clouds.3 mph55%30.12 "Hg47 mi
Weather by CustomWeather, © 2015

See weather overviewHow to use our weather pages